This is the latest recevied weather packets stored in our database for station/object SA7AHC. If no packets are shown the sender has not sent any weather packets the latest 10 day(s).
| Time | Temp. | Humidity | Pressure | Rain* | Wind** | Luminosity | Snow |
|---|---|---|---|---|---|---|---|
| 1778129944 | 1.67° C | 86% | 1015.2 hPa | 0 mm | - | 40 W/m² | - |
| 1778129346 | 1.11° C | 86% | 1014.9 hPa | 0 mm | - | 44 W/m² | - |
| 1778128747 | 1.11° C | 87% | 1014.9 hPa | 0 mm | - | 40 W/m² | - |
| 1778128146 | 1.11° C | 87% | 1014.8 hPa | 0 mm | - | 33 W/m² | - |
| 1778127547 | 0.56° C | 87% | 1014.8 hPa | 0 mm | - | 32 W/m² | - |
| 1778126947 | 0.56° C | 87% | 1014.7 hPa | 0 mm | - | 37 W/m² | - |
| 1778126346 | 0° C | 88% | 1014.6 hPa | 0 mm | - | 37 W/m² | - |
| 1778125748 | 0° C | 87% | 1014.3 hPa | 0 mm | - | 37 W/m² | - |
| 1778125148 | 0° C | 86% | 1014.3 hPa | 0 mm | - | 33 W/m² | - |
| 1778124547 | 0° C | 85% | 1014.3 hPa | 0 mm | - | 23 W/m² | - |
| 1778123949 | 0° C | 84% | 1014.2 hPa | 0 mm | - | 12 W/m² | - |
| 1778123354 | 0° C | 81% | 1014.2 hPa | 0 mm | - | 7 W/m² | - |
| 1778122744 | -0.56° C | 81% | 1014.1 hPa | 0 mm | - | 0 W/m² | - |
| 1778122144 | 0° C | 80% | 1014.1 hPa | 0 mm | - | 0 W/m² | - |
| 1778121547 | 0° C | 80% | 1014.1 hPa | 0 mm | - | 0 W/m² | - |
| 1778120951 | 0° C | 80% | 1014.1 hPa | 0 mm | - | 0 W/m² | - |
| 1778120347 | 0° C | 79% | 1014.1 hPa | 0 mm | - | 0 W/m² | - |
| 1778119743 | 0° C | 79% | 1014.1 hPa | 0 mm | - | 0 W/m² | - |
| 1778119146 | 0.56° C | 79% | 1014.2 hPa | 0 mm | - | 0 W/m² | - |
| 1778118545 | 0.56° C | 78% | 1014.2 hPa | 0 mm | - | 0 W/m² | - |
| 1778117944 | 0.56° C | 78% | 1014.2 hPa | 0 mm | - | 0 W/m² | - |
| 1778117346 | 0.56° C | 78% | 1014.2 hPa | 0 mm | - | 0 W/m² | - |
| 1778116729 | 0.56° C | 77% | 1014.1 hPa | 0 mm | - | 0 W/m² | - |
| 1778116120 | 1.11° C | 78% | 1014.1 hPa | 0 mm | - | 0 W/m² | - |
| 1778115513 | 1.11° C | 78% | 1014 hPa | 0 mm | - | 0 W/m² | - |
* Rain latest hour (hover to see other rain measurements)
** Current wind speed in m/s (hover to see current wind gust speed)